Location: Madrid
(40.4000°N, 3.6830°W)
Time: 08:42:36
(UTC+02:00)

ISS - Pass Details

Date: 25 July 2017
Orbit: 400 x 408 km, 51.6° (Epoch: 21 July)

Event Time Altitude Azimuth Distance (km) Brightness Sun altitude
Rises 03:17:36 0° 312° (NW) 2,314 0.4 -28.5°
Reaches altitude 10° 03:20:14 10° 335° (NNW) 1,454 -0.5 -28.4°
Maximum altitude 03:22:24 16° 17° (NNE) 1,132 -0.8 -28.3°
Drops below altitude 10° 03:24:34 10° 59° (ENE) 1,454 -0.5 -28.2°
Sets 03:27:12 0° 81° (E) 2,312 0.3 -28.0°
